| time (UTC) | temp F | wind direction | speed knots | gust knots | rain 1hr in | rain 24hr in | rain mn in | humidity % | barometer mb |
| 20260506004506 | 81 | 138 | 0.0 | 5.2 | 0.00 | 0.00 | 0.00 | 79 | 1005.4 |
| 20260506004000 | 82 | 129 | 1.7 | 5.2 | 0.00 | 0.00 | 0.00 | 79 | 1005.4 |
| 20260506003452 | 82 | 170 | 0.0 | 3.5 | 0.00 | 0.00 | 0.00 | 78 | 1005.4 |
| 20260506002949 | 82 | 154 | 0.0 | 3.5 | 0.00 | 0.00 | 0.00 | 78 | 1005.4 |
| 20260506002715 | 81 | 117 | 0.0 | 5.2 | 0.00 | 0.00 | 0.00 | 79 | 1005.1 |
| 20260506001938 | 81 | 151 | 0.0 | 5.2 | 0.00 | 0.00 | 0.00 | 79 | 1005.1 |
| 20260506001432 | 82 | 171 | 0.9 | 3.5 | 0.00 | 0.00 | 0.00 | 78 | 1005.4 |
| 20260506000931 | 82 | 198 | 2.6 | 3.5 | 0.00 | 0.00 | 0.00 | 78 | 1005.4 |
| 20260506000423 | 82 | 177 | 0.0 | 6.1 | 0.00 | 0.00 | 0.00 | 78 | 1005.4 |
| 20260505235917 | 82 | 138 | 0.9 | 3.5 | 0.00 | 0.00 | 0.00 | 78 | 1005.4 |
| 20260505235413 | 82 | 170 | 0.9 | 7.0 | 0.00 | 0.00 | 0.00 | 78 | 1005.1 |
| 20260505235139 | 82 | 123 | 1.7 | 7.0 | 0.00 | 0.00 | 0.00 | 78 | 1005.1 |
| 20260505234401 | 82 | 181 | 0.9 | 6.1 | 0.00 | 0.00 | 0.00 | 77 | 1005.1 |
| 20260505233853 | 82 | 215 | 1.7 | 5.2 | 0.00 | 0.00 | 0.00 | 78 | 1005.1 |
| 20260505233344 | 82 | 168 | 0.0 | 2.6 | 0.00 | 0.00 | 0.00 | 78 | 1005.1 |
| 20260505233107 | 82 | 159 | 0.0 | 3.5 | 0.00 | 0.00 | 0.00 | 78 | 1005.4 |
| 20260505232335 | 83 | 133 | 0.0 | 6.1 | 0.00 | 0.00 | 0.00 | 77 | 1005.1 |
| 20260505231826 | 83 | 123 | 1.7 | 6.1 | 0.00 | 0.00 | 0.00 | 77 | 1005.1 |
| 20260505231318 | 83 | 112 | 1.7 | 5.2 | 0.00 | 0.00 | 0.00 | 77 | 1005.4 |
| 20260505230818 | 83 | 268 | 2.6 | 5.2 | 0.00 | 0.00 | 0.00 | 77 | 1005.1 |
| 20260505230532 | 83 | 148 | 0.9 | 5.2 | 0.00 | 0.00 | 0.00 | 77 | 1005.4 |
| 20260505225255 | 83 | 153 | 0.0 | 6.1 | 0.00 | 0.00 | 0.00 | 76 | 1005.4 |
| 20260505224756 | 83 | 153 | 0.9 | 6.1 | 0.00 | 0.00 | 0.00 | 76 | 1005.1 |
| 20260505224246 | 83 | 164 | 2.6 | 7.8 | 0.00 | 0.00 | 0.00 | 76 | 1005.4 |
| 20260505223738 | 84 | 194 | 4.3 | 7.8 | 0.00 | 0.00 | 0.00 | 75 | 1005.4 |
| 20260505223231 | 84 | 172 | 0.0 | 7.8 | 0.00 | 0.00 | 0.00 | 75 | 1005.1 |
| 20260505222730 | 84 | 213 | 1.7 | 7.8 | 0.00 | 0.00 | 0.00 | 75 | 1005.4 |
| 20260505222222 | 84 | 189 | 3.5 | 7.8 | 0.00 | 0.00 | 0.00 | 75 | 1005.4 |
| 20260505221714 | 84 | 167 | 0.9 | 7.8 | 0.00 | 0.00 | 0.00 | 75 | 1005.4 |
| 20260505221437 | 85 | 101 | 0.0 | 6.1 | 0.00 | 0.00 | 0.00 | 74 | 1005.4 |
| 20260505220705 | 85 | 159 | 0.0 | 6.1 | 0.00 | 0.00 | 0.00 | 74 | 1005.4 |
| 20260505220158 | 85 | 65 | 0.0 | 6.1 | 0.00 | 0.00 | 0.00 | 73 | 1005.4 |
| 20260505215649 | 85 | 155 | 2.6 | 6.1 | 0.00 | 0.00 | 0.00 | 73 | 1005.4 |
| 20260505215142 | 85 | 162 | 0.0 | 7.0 | 0.00 | 0.00 | 0.00 | 73 | 1005.8 |
| 20260505214642 | 85 | 149 | 0.9 | 7.0 | 0.00 | 0.00 | 0.00 | 73 | 1005.4 |
| 20260505214136 | 85 | 166 | 3.5 | 7.0 | 0.00 | 0.00 | 0.00 | 73 | 1005.8 |
| 20260505213630 | 86 | 117 | 2.6 | 9.6 | 0.00 | 0.00 | 0.00 | 73 | 1005.8 |
| 20260505213123 | 86 | 175 | 1.7 | 9.6 | 0.00 | 0.00 | 0.00 | 72 | 1005.8 |
| 20260505212623 | 85 | 161 | 0.9 | 7.8 | 0.00 | 0.00 | 0.00 | 73 | 1005.8 |
| 20260505212115 | 85 | 341 | 2.6 | 7.8 | 0.00 | 0.00 | 0.00 | 73 | 1005.8 |
| 20260505211608 | 86 | 115 | 0.0 | 6.1 | 0.00 | 0.00 | 0.00 | 72 | 1005.8 |
| 20260505211101 | 86 | 210 | 3.5 | 6.1 | 0.00 | 0.00 | 0.00 | 72 | 1005.8 |
| 20260505210601 | 86 | 115 | 3.5 | 7.8 | 0.00 | 0.00 | 0.00 | 72 | 1006.1 |
| 20260505210055 | 86 | 151 | 3.5 | 8.7 | 0.00 | 0.00 | 0.00 | 72 | 1006.1 |
| 20260505205548 | 85 | 200 | 3.5 | 7.8 | 0.00 | 0.00 | 0.00 | 73 | 1006.1 |
| 20260505205041 | 85 | 164 | 0.0 | 7.8 | 0.00 | 0.00 | 0.00 | 73 | 1006.1 |
| 20260505204539 | 86 | 181 | 0.9 | 7.8 | 0.00 | 0.00 | 0.00 | 73 | 1006.1 |
| 20260505204033 | 86 | 271 | 4.3 | 7.8 | 0.00 | 0.00 | 0.00 | 73 | 1006.1 |
| 20260505203526 | 85 | 99 | 0.9 | 6.1 | 0.00 | 0.00 | 0.00 | 73 | 1006.4 |
| 20260505203021 | 85 | 175 | 0.0 | 6.1 | 0.00 | 0.00 | 0.00 | 73 | 1006.4 |
| 20260505202510 | 86 | 143 | 0.0 | 7.8 | 0.00 | 0.00 | 0.00 | 73 | 1006.4 |
| 20260505202003 | 85 | 122 | 2.6 | 7.8 | 0.00 | 0.00 | 0.00 | 74 | 1006.8 |
| 20260505201455 | 85 | 183 | 0.0 | 5.2 | 0.00 | 0.00 | 0.00 | 73 | 1006.8 |
| 20260505200948 | 85 | 182 | 0.9 | 5.2 | 0.00 | 0.00 | 0.00 | 73 | 1006.8 |
| 20260505200445 | 86 | 177 | 3.5 | 7.0 | 0.00 | 0.00 | 0.00 | 72 | 1006.8 |
| 20260505195939 | 85 | 146 | 0.9 | 11.3 | 0.00 | 0.00 | 0.00 | 73 | 1006.8 |
| 20260505195434 | 85 | 141 | 2.6 | 11.3 | 0.00 | 0.00 | 0.00 | 73 | 1006.8 |
| 20260505194926 | 85 | 133 | 0.9 | 6.1 | 0.00 | 0.00 | 0.00 | 74 | 1007.1 |
| 20260505194417 | 85 | 173 | 0.9 | 6.1 | 0.00 | 0.00 | 0.00 | 74 | 1007.1 |
| 20260505193911 | 86 | 210 | 3.5 | 5.2 | 0.00 | 0.00 | 0.00 | 72 | 1007.1 |
| 20260505193402 | 86 | 129 | 1.7 | 5.2 | 0.00 | 0.00 | 0.00 | 72 | 1007.1 |
| 20260505192855 | 85 | 198 | 0.0 | 6.1 | 0.00 | 0.00 | 0.00 | 73 | 1007.1 |
| 20260505192354 | 85 | 144 | 3.5 | 6.1 | 0.00 | 0.00 | 0.00 | 74 | 1007.1 |
| 20260505191846 | 84 | 219 | 2.6 | 6.1 | 0.00 | 0.00 | 0.00 | 75 | 1007.5 |
| 20260505191607 | 84 | 157 | 2.6 | 6.1 | 0.00 | 0.00 | 0.00 | 75 | 1007.5 |
| 20260505190835 | 83 | 235 | 1.7 | 6.1 | 0.00 | 0.00 | 0.00 | 76 | 1007.5 |
| 20260505190331 | 82 | 109 | 0.0 | 6.1 | 0.00 | 0.00 | 0.00 | 78 | 1007.5 |
| 20260505185823 | 83 | 172 | 1.7 | 6.1 | 0.00 | 0.00 | 0.00 | 77 | 1007.1 |
| 20260505185318 | 84 | 203 | 3.5 | 6.1 | 0.00 | 0.00 | 0.00 | 75 | 1007.5 |
| 20260505184810 | 84 | 160 | 0.0 | 6.1 | 0.00 | 0.00 | 0.00 | 74 | 1007.5 |
| 20260505184529 | 84 | 179 | 0.0 | 3.5 | 0.00 | 0.00 | 0.00 | 75 | 1007.5 |
| 20260505183803 | 83 | 94 | 0.9 | 6.1 | 0.00 | 0.00 | 0.00 | 77 | 1007.5 |
| 20260505183256 | 83 | 170 | 2.6 | 6.1 | 0.00 | 0.00 | 0.00 | 76 | 1007.5 |
| 20260505182750 | 83 | 130 | 0.9 | 7.8 | 0.00 | 0.00 | 0.00 | 76 | 1007.5 |
| 20260505182242 | 82 | 159 | 0.0 | 7.8 | 0.00 | 0.00 | 0.00 | 77 | 1007.5 |
| 20260505181733 | 82 | 117 | 0.0 | 3.5 | 0.00 | 0.00 | 0.00 | 78 | 1007.5 |
| 20260505181226 | 82 | 141 | 0.9 | 6.1 | 0.00 | 0.00 | 0.00 | 77 | 1007.5 |
| 20260505180942 | 83 | 140 | 2.6 | 6.1 | 0.00 | 0.00 | 0.00 | 77 | 1007.5 |
| 20260505180219 | 83 | 164 | 0.0 | 6.1 | 0.00 | 0.00 | 0.00 | 76 | 1007.8 |
| 20260505175713 | 83 | 189 | 0.0 | 11.3 | 0.00 | 0.00 | 0.00 | 76 | 1007.8 |
| 20260505175430 | 82 | 155 | 3.5 | 7.8 | 0.00 | 0.00 | 0.00 | 78 | 1007.8 |
| 20260505174657 | 82 | 121 | 0.0 | 5.2 | 0.00 | 0.00 | 0.00 | 79 | 1007.8 |
| 20260505174156 | 81 | 159 | 2.6 | 6.1 | 0.00 | 0.00 | 0.00 | 79 | 1007.8 |
| 20260505173648 | 81 | 193 | 1.7 | 7.8 | 0.00 | 0.00 | 0.00 | 79 | 1008.1 |
| 20260505173408 | 82 | 111 | 4.3 | 7.8 | 0.00 | 0.00 | 0.00 | 78 | 1008.1 |
| 20260505172634 | 82 | 148 | 0.0 | 5.2 | 0.00 | 0.00 | 0.00 | 78 | 1008.1 |
| 20260505172134 | 81 | 227 | 0.0 | 7.0 | 0.00 | 0.00 | 0.00 | 78 | 1007.8 |
| 20260505171627 | 81 | 120 | 0.9 | 7.0 | 0.00 | 0.00 | 0.00 | 79 | 1007.8 |
| 20260505171119 | 81 | 171 | 0.0 | 3.5 | 0.00 | 0.00 | 0.00 | 79 | 1008.1 |
| 20260505170831 | 81 | 141 | 0.0 | 3.5 | 0.00 | 0.00 | 0.00 | 80 | 1008.1 |
| 20260505170113 | 81 | 149 | 0.0 | 5.2 | 0.00 | 0.00 | 0.00 | 80 | 1008.1 |
| 20260505165604 | 80 | 212 | 0.0 | 5.2 | 0.00 | 0.00 | 0.00 | 80 | 1008.1 |
| 20260505165059 | 80 | 170 | 0.0 | 3.5 | 0.00 | 0.00 | 0.00 | 80 | 1008.1 |
| 20260505164551 | 80 | 167 | 0.0 | 3.5 | 0.00 | 0.00 | 0.00 | 80 | 1008.1 |
| 20260505164309 | 80 | 286 | 2.6 | 3.5 | 0.00 | 0.00 | 0.00 | 81 | 1008.1 |
| 20260505163542 | 79 | 140 | 0.0 | 7.8 | 0.00 | 0.00 | 0.00 | 82 | 1008.1 |
| 20260505163033 | 79 | 123 | 0.0 | 7.8 | 0.00 | 0.00 | 0.00 | 82 | 1008.1 |
| 20260505162525 | 80 | 160 | 1.7 | 7.8 | 0.00 | 0.00 | 0.00 | 81 | 1008.1 |
| 20260505162023 | 80 | 222 | 0.0 | 7.8 | 0.00 | 0.00 | 0.00 | 80 | 1008.1 |
| 20260505161517 | 80 | 197 | 0.0 | 5.2 | 0.00 | 0.00 | 0.00 | 79 | 1007.8 |
| 20260505161010 | 80 | 181 | 1.7 | 7.0 | 0.00 | 0.00 | 0.00 | 79 | 1007.8 |
| 20260505160505 | 80 | 168 | 1.7 | 7.0 | 0.00 | 0.00 | 0.00 | 80 | 1007.8 |
| 20260505152920 | 79 | 149 | 0.0 | 6.1 | 0.00 | 0.00 | 0.00 | 81 | 1007.8 |
| 20260505152414 | 79 | 154 | 0.0 | 6.1 | 0.00 | 0.00 | 0.00 | 82 | 1007.8 |
| 20260505151905 | 79 | 158 | 0.9 | 3.5 | 0.00 | 0.00 | 0.00 | 82 | 1007.8 |
| 20260505151359 | 78 | 176 | 0.0 | 5.2 | 0.00 | 0.00 | 0.00 | 82 | 1007.8 |
| 20260505151109 | 78 | 107 | 0.0 | 7.0 | 0.00 | 0.00 | 0.00 | 83 | 1007.8 |
| 20260505150346 | 78 | 143 | 0.0 | 7.0 | 0.00 | 0.00 | 0.00 | 82 | 1007.8 |
| 20260505140223 | 77 | 128 | 0.0 | 6.1 | 0.00 | 0.00 | 0.00 | 84 | 1007.5 |
| 20260505130115 | 75 | 153 | 0.0 | 1.7 | 0.00 | 0.00 | 0.00 | 87 | 1007.5 |
| 20260505124559 | 74 | 118 | 0.0 | 3.5 | 0.00 | 0.00 | 0.00 | 87 | 1007.5 |
| 20260505124052 | 74 | 146 | 0.0 | 3.5 | 0.00 | 0.00 | 0.00 | 87 | 1007.5 |
| 20260505123547 | 74 | 107 | 0.0 | 2.6 | 0.00 | 0.00 | 0.00 | 87 | 1007.5 |
| 20260505123043 | 74 | 75 | 0.0 | 2.6 | 0.00 | 0.00 | 0.00 | 88 | 1007.5 |
| 20260505122538 | 74 | 166 | 0.0 | 3.5 | 0.00 | 0.00 | 0.00 | 88 | 1007.1 |
| 20260505122030 | 74 | 156 | 0.0 | 3.5 | 0.00 | 0.00 | 0.00 | 88 | 1007.1 |
| 20260505121522 | 74 | 174 | 0.0 | 0.9 | 0.00 | 0.00 | 0.00 | 88 | 1007.1 |
| 20260505121022 | 73 | 127 | 0.0 | 0.9 | 0.00 | 0.00 | 0.00 | 88 | 1007.1 |
| 20260505120515 | 74 | 139 | 0.0 | 0.0 | 0.00 | 0.00 | 0.00 | 88 | 1006.8 |
| 20260505120008 | 74 | 130 | 0.0 | 0.9 | 0.00 | 0.00 | 0.00 | 88 | 1006.8 |
| 20260505115503 | 73 | 134 | 0.0 | 0.9 | 0.00 | 0.00 | 0.00 | 88 | 1006.8 |
| 20260505114959 | 73 | 169 | 0.0 | 0.9 | 0.00 | 0.00 | 0.00 | 88 | 1006.8 |
| 20260505114452 | 74 | 141 | 0.0 | 5.2 | 0.00 | 0.00 | 0.00 | 88 | 1007.1 |
| 20260505113946 | 74 | 126 | 0.0 | 5.2 | 0.00 | 0.00 | 0.00 | 88 | 1007.1 |
| 20260505113439 | 74 | 134 | 0.0 | 3.5 | 0.00 | 0.00 | 0.00 | 87 | 1007.1 |
| 20260505112935 | 73 | 200 | 0.0 | 1.7 | 0.00 | 0.00 | 0.00 | 88 | 1007.1 |
| 20260505112430 | 73 | 152 | 0.0 | 0.9 | 0.00 | 0.00 | 0.00 | 88 | 1006.8 |
| 20260505111922 | 73 | 159 | 0.0 | 3.5 | 0.00 | 0.00 | 0.00 | 88 | 1007.1 |
| 20260505111415 | 73 | 180 | 0.0 | 3.5 | 0.00 | 0.00 | 0.00 | 88 | 1006.8 |
| 20260505110914 | 73 | 138 | 0.0 | 0.9 | 0.00 | 0.00 | 0.00 | 88 | 1006.8 |
| 20260505110406 | 73 | 131 | 0.0 | 0.9 | 0.00 | 0.00 | 0.00 | 88 | 1006.8 |
| 20260505110125 | 73 | 140 | 0.0 | 0.9 | 0.00 | 0.00 | 0.00 | 88 | 1006.8 |
| 20260505101809 | 73 | 179 | 0.0 | 3.5 | 0.00 | 0.00 | 0.00 | 87 | 1007.1 |
| 20260505101301 | 73 | 150 | 0.0 | 0.9 | 0.00 | 0.00 | 0.00 | 87 | 1007.1 |
| 20260505100758 | 73 | 138 | 0.0 | 0.9 | 0.00 | 0.00 | 0.00 | 87 | 1007.1 |
| 20260505100252 | 73 | 155 | 0.0 | 0.9 | 0.00 | 0.00 | 0.00 | 87 | 1007.5 |
| 20260505100009 | 73 | 158 | 0.0 | 0.9 | 0.00 | 0.00 | 0.00 | 87 | 1007.1 |
| 20260505095502 | 73 | 153 | 0.0 | 0.9 | 0.00 | 0.00 | 0.00 | 87 | 1007.1 |
| 20260505094958 | 73 | 136 | 0.0 | 0.9 | 0.00 | 0.00 | 0.00 | 87 | 1006.8 |
| 20260505094233 | 72 | 132 | 0.0 | 2.6 | 0.00 | 0.00 | 0.00 | 87 | 1006.8 |
| 20260505093725 | 73 | 154 | 0.0 | 2.6 | 0.00 | 0.00 | 0.00 | 87 | 1007.1 |
| 20260505093219 | 73 | 70 | 0.0 | 0.9 | 0.00 | 0.00 | 0.00 | 87 | 1007.1 |
| 20260505092717 | 73 | 151 | 0.0 | 0.9 | 0.00 | 0.00 | 0.00 | 87 | 1007.1 |
| 20260505092209 | 73 | 128 | 0.0 | 0.9 | 0.00 | 0.00 | 0.00 | 86 | 1007.1 |
| 20260505091702 | 73 | 146 | 0.0 | 0.9 | 0.00 | 0.00 | 0.00 | 87 | 1007.5 |
| 20260505091157 | 73 | 144 | 0.0 | 0.9 | 0.00 | 0.00 | 0.00 | 87 | 1007.5 |
| 20260505090647 | 73 | 153 | 0.0 | 0.9 | 0.00 | 0.00 | 0.00 | 87 | 1007.5 |
| 20260505090140 | 73 | 121 | 0.0 | 0.9 | 0.00 | 0.00 | 0.00 | 87 | 1007.5 |
| 20260505085633 | 73 | 141 | 0.0 | 2.6 | 0.00 | 0.00 | 0.00 | 87 | 1007.5 |
| 20260505085125 | 73 | 147 | 0.0 | 2.6 | 0.00 | 0.00 | 0.00 | 87 | 1007.5 |
| 20260505084623 | 72 | 151 | 0.0 | 0.9 | 0.00 | 0.00 | 0.00 | 87 | 1007.5 |
| 20260505084118 | 72 | 133 | 0.0 | 1.7 | 0.00 | 0.00 | 0.00 | 87 | 1007.5 |
| 20260505083608 | 72 | 108 | 1.7 | 1.7 | 0.00 | 0.00 | 0.00 | 87 | 1007.5 |
| 20260505083101 | 72 | 138 | 0.0 | 0.9 | 0.00 | 0.00 | 0.00 | 87 | 1007.5 |
| 20260505082600 | 72 | 154 | 0.0 | 0.9 | 0.00 | 0.00 | 0.00 | 87 | 1007.5 |
| 20260505082053 | 72 | 147 | 0.0 | 0.9 | 0.00 | 0.00 | 0.00 | 87 | 1007.5 |
| 20260505081546 | 72 | 127 | 0.0 | 1.7 | 0.00 | 0.00 | 0.00 | 86 | 1007.5 |
| 20260505081042 | 72 | 128 | 0.0 | 2.6 | 0.00 | 0.00 | 0.00 | 86 | 1007.8 |
| 20260505080538 | 72 | 220 | 0.0 | 2.6 | 0.00 | 0.00 | 0.00 | 86 | 1007.8 |
| 20260505080031 | 72 | 135 | 0.0 | 2.6 | 0.00 | 0.00 | 0.00 | 86 | 1007.8 |
| 20260505075525 | 72 | 225 | 1.7 | 2.6 | 0.00 | 0.00 | 0.00 | 86 | 1007.8 |
| 20260505075017 | 72 | 146 | 0.0 | 2.6 | 0.00 | 0.00 | 0.00 | 86 | 1007.8 |
| 20260505074519 | 72 | 151 | 0.0 | 2.6 | 0.00 | 0.00 | 0.00 | 85 | 1007.8 |
| 20260505074010 | 73 | 278 | 0.9 | 2.6 | 0.00 | 0.00 | 0.00 | 85 | 1007.8 |
| 20260505073502 | 72 | 135 | 0.0 | 2.6 | 0.00 | 0.00 | 0.00 | 85 | 1007.8 |
| 20260505072957 | 72 | 188 | 0.0 | 1.7 | 0.00 | 0.00 | 0.00 | 85 | 1007.8 |
| 20260505072711 | 72 | 183 | 0.0 | 3.5 | 0.00 | 0.00 | 0.00 | 85 | 1007.8 |
| 20260505071947 | 72 | 114 | 0.0 | 3.5 | 0.00 | 0.00 | 0.00 | 85 | 1007.8 |
| 20260505071442 | 72 | 148 | 0.0 | 3.5 | 0.00 | 0.00 | 0.00 | 85 | 1007.8 |
| 20260505070932 | 72 | 151 | 0.0 | 3.5 | 0.00 | 0.00 | 0.00 | 85 | 1007.8 |
| 20260505065925 | 72 | 162 | 0.0 | 1.7 | 0.00 | 0.00 | 0.00 | 85 | 1008.1 |
| 20260505065417 | 72 | 126 | 0.0 | 2.6 | 0.00 | 0.00 | 0.00 | 85 | 1008.1 |
| 20260505064910 | 72 | 132 | 0.0 | 2.6 | 0.00 | 0.00 | 0.00 | 84 | 1008.1 |
| 20260505064407 | 72 | 138 | 0.9 | 3.5 | 0.00 | 0.00 | 0.00 | 84 | 1008.1 |
| 20260505063853 | 72 | 164 | 0.9 | 3.5 | 0.00 | 0.00 | 0.00 | 84 | 1008.5 |
| 20260505063605 | 72 | 139 | 0.0 | 1.7 | 0.00 | 0.00 | 0.00 | 84 | 1008.5 |
| 20260505062844 | 72 | 144 | 0.0 | 2.6 | 0.00 | 0.00 | 0.00 | 84 | 1008.5 |
| 20260505062332 | 72 | 120 | 0.0 | 2.6 | 0.00 | 0.00 | 0.00 | 84 | 1008.5 |
| 20260505061818 | 72 | 153 | 0.0 | 1.7 | 0.00 | 0.00 | 0.00 | 84 | 1008.8 |
| 20260505060805 | 72 | 187 | 0.0 | 0.9 | 0.00 | 0.00 | 0.00 | 83 | 1008.8 |
| 20260505060259 | 72 | 141 | 0.0 | 1.7 | 0.00 | 0.00 | 0.00 | 83 | 1008.8 |
| 20260505055803 | 72 | 143 | 0.0 | 1.7 | 0.00 | 0.00 | 0.00 | 83 | 1008.8 |
| 20260505055516 | 72 | 140 | 0.0 | 1.7 | 0.00 | 0.00 | 0.00 | 83 | 1008.8 |
| 20260505054747 | 72 | 208 | 0.0 | 3.5 | 0.00 | 0.00 | 0.00 | 83 | 1008.8 |
| 20260505054243 | 72 | 165 | 0.0 | 3.5 | 0.00 | 0.00 | 0.00 | 82 | 1008.8 |
| 20260505053739 | 72 | 174 | 1.7 | 2.6 | 0.00 | 0.00 | 0.00 | 82 | 1008.8 |
| 20260505053231 | 72 | 141 | 0.0 | 0.9 | 0.00 | 0.00 | 0.00 | 82 | 1009.1 |
| 20260505052949 | 72 | 122 | 0.0 | 0.9 | 0.00 | 0.00 | 0.00 | 82 | 1009.1 |
| 20260505052220 | 72 | 148 | 0.0 | 0.9 | 0.00 | 0.00 | 0.00 | 82 | 1009.1 |
| 20260505051710 | 72 | 135 | 0.0 | 2.6 | 0.00 | 0.00 | 0.00 | 82 | 1009.1 |
| 20260505051206 | 72 | 123 | 0.9 | 2.6 | 0.00 | 0.00 | 0.00 | 82 | 1009.1 |
| 20260505050659 | 72 | 152 | 0.0 | 1.7 | 0.00 | 0.00 | 0.00 | 81 | 1009.1 |
| 20260505050412 | 72 | 149 | 0.0 | 1.7 | 0.00 | 0.00 | 0.00 | 81 | 1009.1 |
| 20260505041553 | 73 | 150 | 2.6 | 5.2 | 0.00 | 0.00 | 0.00 | 79 | 1009.1 |
| 20260505041048 | 73 | 129 | 0.0 | 5.2 | 0.00 | 0.00 | 0.00 | 79 | 1009.1 |
| 20260505040540 | 73 | 139 | 0.0 | 2.6 | 0.00 | 0.00 | 0.00 | 79 | 1009.1 |
| 20260505040036 | 73 | 150 | 0.0 | 3.5 | 0.00 | 0.00 | 0.00 | 78 | 1009.5 |
| 20260505035526 | 73 | 181 | 0.9 | 5.2 | 0.00 | 0.00 | 0.00 | 78 | 1009.5 |
| 20260505034511 | 74 | 137 | 0.0 | 5.2 | 0.00 | 0.00 | 0.00 | 77 | 1009.5 |
| 20260505034005 | 74 | 135 | 0.9 | 3.5 | 0.00 | 0.00 | 0.00 | 77 | 1009.5 |
| 20260505033502 | 74 | 152 | 0.0 | 5.2 | 0.00 | 0.00 | 0.00 | 77 | 1009.5 |
| 20260505032957 | 74 | 169 | 1.7 | 7.0 | 0.00 | 0.00 | 0.00 | 77 | 1009.5 |
| 20260505032451 | 74 | 122 | 1.7 | 7.0 | 0.00 | 0.00 | 0.00 | 77 | 1009.5 |
| 20260505031945 | 74 | 160 | 2.6 | 6.1 | 0.00 | 0.00 | 0.00 | 76 | 1009.5 |
| 20260505031437 | 74 | 192 | 2.6 | 6.1 | 0.00 | 0.00 | 0.00 | 76 | 1009.5 |
| 20260505030930 | 74 | 167 | 1.7 | 6.1 | 0.00 | 0.00 | 0.00 | 76 | 1009.5 |
| 20260505030424 | 75 | 180 | 0.0 | 3.5 | 0.00 | 0.00 | 0.00 | 76 | 1009.5 |
| 20260505025918 | 75 | 240 | 0.0 | 3.5 | 0.00 | 0.00 | 0.00 | 76 | 1009.5 |
| 20260505025416 | 75 | 134 | 1.7 | 2.6 | 0.00 | 0.00 | 0.00 | 75 | 1009.5 |
| 20260505024908 | 75 | 151 | 0.0 | 5.2 | 0.00 | 0.00 | 0.00 | 75 | 1009.8 |
| 20260505024402 | 75 | 132 | 0.0 | 5.2 | 0.00 | 0.00 | 0.00 | 75 | 1009.5 |
| 20260505023351 | 75 | 130 | 0.0 | 2.6 | 0.00 | 0.00 | 0.00 | 75 | 1009.5 |
| 20260505022845 | 75 | 130 | 0.0 | 3.5 | 0.00 | 0.00 | 0.00 | 75 | 1009.5 |
| 20260505022339 | 75 | 111 | 0.9 | 5.2 | 0.00 | 0.00 | 0.00 | 75 | 1009.1 |
| 20260505021833 | 75 | 134 | 0.0 | 5.2 | 0.00 | 0.00 | 0.00 | 74 | 1009.1 |
| 20260505021330 | 75 | 183 | 0.0 | 6.1 | 0.00 | 0.00 | 0.00 | 74 | 1009.1 |
| 20260505020822 | 75 | 138 | 0.0 | 6.1 | 0.00 | 0.00 | 0.00 | 74 | 1009.1 |
| 20260505020314 | 76 | 152 | 0.0 | 1.7 | 0.00 | 0.00 | 0.00 | 74 | 1009.1 |
| 20260505015805 | 76 | 167 | 1.7 | 1.7 | 0.00 | 0.00 | 0.00 | 74 | 1009.5 |
| 20260505015305 | 76 | 154 | 0.9 | 1.7 | 0.00 | 0.00 | 0.00 | 73 | 1009.1 |
| 20260505014756 | 76 | 176 | 0.0 | 5.2 | 0.00 | 0.00 | 0.00 | 73 | 1009.1 |
| 20260505014248 | 76 | 160 | 0.0 | 5.2 | 0.00 | 0.00 | 0.00 | 74 | 1009.1 |
| 20260505013739 | 76 | 148 | 0.0 | 1.7 | 0.00 | 0.00 | 0.00 | 73 | 1009.1 |
| 20260505013238 | 76 | 150 | 0.0 | 1.7 | 0.00 | 0.00 | 0.00 | 73 | 1009.1 |
| 20260505012731 | 76 | 145 | 0.0 | 0.9 | 0.00 | 0.00 | 0.00 | 73 | 1009.1 |
| 20260505012223 | 76 | 141 | 0.0 | 1.7 | 0.00 | 0.00 | 0.00 | 73 | 1008.8 |
| 20260505011216 | 76 | 143 | 0.0 | 5.2 | 0.00 | 0.00 | 0.00 | 72 | 1009.1 |
| 20260505010709 | 76 | 155 | 0.0 | 3.5 | 0.00 | 0.00 | 0.00 | 72 | 1009.1 |
| 20260505010202 | 76 | 131 | 0.0 | 3.5 | 0.00 | 0.00 | 0.00 | 72 | 1008.8 |
| 20260505005653 | 76 | 197 | 0.0 | 6.1 | 0.00 | 0.00 | 0.00 | 71 | 1008.8 |
| 20260505005153 | 77 | 177 | 0.0 | 6.1 | 0.00 | 0.00 | 0.00 | 71 | 1008.8 |